[[{"header":{"parameterUnit":"m.s-1","parameterCategory":1,"la1":30.2991,"la2":30.254,"lo1":-89.0895,"lo2":-89.0444,"dy":0.0017,"dx":0.0017,"nx":28,"ny":28,"refTime":"2024-06-03T09:00:00:Z","depth":0,"parameterNumber":2,"parameterNumberName":"U-component_of_WINDS"},"data":[0,0,0,0,0,0,0,0,0,0,0,0,0,0,0,0,0,0,0,0,0,0,0,0,0,0,0,0,0,0,0,0,0,0,0,0,0,0,0,0,0,0,0,0,0,0,0,0,0,0,0,0,0,0,0,0,0,0,-1.4914,-1.4915,0,-1.4999,-1.5,-1.5001,-1.5011,-1.501,-1.5009,-1.5008,-1.5097,-1.51,-1.5103,0,0,0,0,0,0,0,0,0,0,0,0,0,-1.4762,-1.4765,-1.4914,-1.4915,-1.4916,-1.4999,-1.5,-1.5001,-1.5011,-1.501,-1.5009,-1.5008,-1.5096,-1.5099,-1.5103,0,0,0,0,0,0,0,0,0,0,0,0,0,-1.4836,-1.4766,-1.4914,-1.4931,-1.4933,-1.4999,-1.5,-1.5002,-1.5011,-1.501,-1.5009,-1.5007,-1.5094,-1.5099,-1.5104,-1.5158,0,0,-1.5118,-1.512,0,0,0,0,0,0,0,0,-1.4832,-1.4841,-1.4927,-1.493,-1.4933,-1.4993,-1.4979,-1.5054,-1.5011,-1.4982,-1.5008,-1.5007,-1.5063,-1.507,-1.5089,-1.5162,-1.5166,-1.5118,-1.5121,-1.5123,-1.5125,0,0,0,0,0,0,0,-1.4826,-1.4838,-1.4948,-1.4929,-1.4932,-1.4935,-1.4944,-1.4993,-1.5029,-1.4984,-1.4985,-1.4995,-1.5064,-1.5085,-1.5091,-1.5167,-1.5118,-1.5122,-1.5125,-1.5127,-1.529,-1.5291,0,0,0,0,0,0,-1.4818,-1.4833,-1.4945,-1.495,-1.4878,-1.4939,-1.4949,-1.4975,-1.5028,-1.5035,-1.4996,-1.4995,-1.5077,-1.5086,-1.5094,-1.5162,-1.5123,-1.5128,-1.513,-1.5288,-1.529,-1.5292,0,0,0,0,0,0,-1.4815,-1.4828,-1.4942,-1.4892,-1.4907,-1.4943,-1.4972,-1.4977,-1.4997,-1.5037,-1.5043,-1.501,-1.5076,-1.5088,-1.5142,-1.5165,-1.513,-1.5134,-1.5287,-1.5289,-1.5291,-1.5297,0,0,0,0,0,0,-1.481,-1.4827,-1.4847,-1.4892,-1.4909,-1.4987,-1.4973,-1.498,-1.5005,-1.5005,-1.5052,-1.5058,-1.5076,-1.5135,-1.5147,-1.5171,-1.5138,-1.5285,-1.5288,-1.529,-1.5295,-1.5299,-1.5303,0,0,0,0,0,-1.4805,-1.4846,-1.4848,-1.4862,-1.4936,-1.4989,-1.4998,-1.5018,-1.5007,-1.5028,-1.5054,-1.5057,-1.5161,-1.5141,-1.5154,-1.518,-1.5283,-1.5287,-1.529,-1.5293,-1.5298,-1.5303,0,0,0,0,0,0,-1.4803,-1.4852,-1.4855,-1.4912,-1.4946,-1.499,-1.5018,-1.5023,-1.5061,-1.5059,-1.5082,-1.5093,-1.5146,-1.5169,-1.5145,-1.5236,-1.5221,-1.5227,-1.5219,-1.5224,-1.5228,-1.5221,-1.5142,0,0,0,0,0,-1.4809,-1.4847,-1.4888,-1.4934,-1.4951,-1.4982,-1.5005,-1.5017,-1.5054,-1.5068,-1.5098,-1.5133,-1.5174,-1.52,-1.524,-1.5298,-1.5309,-1.5323,-1.5327,-1.533,-1.5335,-1.5367,-1.5374,-1.5303,-1.5303,-1.5303,0,0,-1.4822,-1.4854,-1.4876,-1.4935,-1.4963,-1.5002,-1.4994,-1.5036,-1.5065,-1.5075,-1.5128,-1.5151,-1.5192,-1.5249,-1.5275,-1.5269,-1.5357,-1.5334,-1.5336,-1.534,-1.5372,-1.5378,-1.5384,-1.5305,-1.5305,-1.5304,0,0,-1.4866,-1.4893,-1.4935,-1.4963,-1.5005,-1.5025,-1.5035,-1.5079,-1.5094,-1.5147,-1.5155,-1.5191,-1.5261,-1.529,-1.5314,-1.5369,-1.5374,-1.5382,-1.5402,-1.5434,-1.5439,-1.5445,-1.5464,-1.5471,-1.5387,-1.5387,-1.5387,0,-1.4877,-1.4936,-1.4956,-1.4998,-1.5023,-1.5033,-1.5076,-1.5102,-1.5155,-1.5173,-1.5165,-1.5253,-1.5282,-1.5345,-1.5359,-1.5378,-1.539,-1.5376,-1.5437,-1.5442,-1.5447,-1.5466,-1.5474,-1.5388,-1.5387,-1.5387,-1.5387,0,-1.4947,-1.4988,-1.5017,-1.5067,-1.5096,-1.5138,-1.5165,-1.5192,-1.5202,-1.5223,-1.5277,-1.5312,-1.5359,-1.5375,-1.5385,-1.544,-1.5435,-1.5432,-1.5418,-1.5454,-1.5473,-1.548,-1.5389,-1.5388,-1.5388,-1.5388,0,0,-1.4992,-1.5053,-1.5063,-1.5086,-1.5133,-1.5166,-1.5208,-1.5254,-1.5277,-1.5313,-1.535,-1.5409,-1.5406,-1.5433,-1.5447,-1.5475,-1.5516,-1.5468,-1.5469,-1.5476,-1.5579,-1.5581,-1.5589,-1.5519,-1.5521,-1.5522,-1.5576,0,-1.5041,-1.5116,-1.5136,-1.52,-1.5239,-1.5249,-1.5286,-1.532,-1.5341,-1.5377,-1.54,-1.5441,-1.5435,-1.5451,-1.5479,-1.5505,-1.5537,-1.5502,-1.5554,-1.5556,-1.5543,-1.5599,-1.5601,-1.5649,-1.5583,-1.5584,-1.5585,0,-1.5108,-1.5145,-1.5213,-1.5256,-1.5273,-1.5306,-1.5349,-1.5383,-1.5422,-1.5435,-1.5465,-1.5477,-1.5522,-1.5506,-1.5569,-1.5545,-1.5567,-1.5583,-1.5586,-1.5591,-1.5572,-1.5605,-1.5665,-1.5672,-1.5596,-1.5596,-1.5595,0,-1.5133,-1.5201,-1.525,-1.527,-1.532,-1.5343,-1.5366,-1.5403,-1.5429,-1.5467,-1.5484,-1.5528,-1.5551,-1.5585,-1.5608,-1.5594,-1.5669,-1.5655,-1.5681,-1.5681,-1.5696,-1.5695,-1.5761,-1.5712,-1.5712,-1.5711,-1.5711,0,-1.5186,-1.5227,-1.5262,-1.5292,-1.5339,-1.5361,-1.5407,-1.543,-1.5463,-1.5499,-1.5511,-1.5544,-1.5572,-1.5609,-1.5628,-1.5677,-1.5688,-1.57,-1.5705,-1.5699,-1.5697,-1.5714,-1.5711,-1.5713,-1.5713,-1.5713,-1.5712,0,-1.5222,-1.5247,-1.5301,-1.5345,-1.5357,-1.5389,-1.5427,-1.5457,-1.5479,-1.5523,-1.5535,-1.5569,-1.5614,-1.564,-1.5696,-1.5708,-1.5763,-1.5766,-1.575,-1.5752,-1.5777,-1.5774,-1.5855,-1.5867,-1.581,-1.5811,-1.5811,0,-1.5253,-1.5285,-1.5332,-1.5356,-1.5379,-1.5418,-1.5444,-1.5468,-1.5495,-1.5542,-1.5566,-1.5611,-1.5649,-1.5719,-1.5749,-1.5793,-1.5797,-1.5822,-1.5803,-1.5797,-1.5797,-1.5794,-1.5798,-1.5825,-1.5826,-1.5826,-1.5826,0,-1.5307,-1.5317,-1.5355,-1.5397,-1.5428,-1.5463,-1.5497,-1.5517,-1.5546,-1.5576,-1.5621,-1.565,-1.5708,-1.5752,-1.5798,-1.5822,-1.5829,-1.5832,-1.5841,-1.5835,-1.5824,-1.583,-1.5758,-1.583,-1.583,-1.5829,-1.5829,-1.5829,-1.5341,-1.537,-1.5407,-1.5449,-1.5477,-1.5509,-1.5539,-1.5565,-1.5602,-1.565,-1.5662,-1.571,-1.5748,-1.581,-1.5835,-1.5873,-1.5869,-1.5881,-1.5884,-1.5887,-1.5888,-1.5818,-1.5882,-1.5882,-1.5882,-1.5882,-1.5882,0,-1.5395,-1.542,-1.5458,-1.5505,-1.5538,-1.5541,-1.558,-1.5607,-1.5648,-1.5683,-1.5719,-1.5772,-1.5815,-1.5849,-1.5894,-1.5918,-1.5922,-1.5929,-1.5927,-1.5932,-1.5889,-1.5877,-1.5924,-1.5924,-1.5924,-1.5924,-1.5924,-1.5924,-1.5427,-1.5476,-1.5491,-1.5554,-1.5579,-1.5625,-1.5647,-1.5676,-1.5704,-1.5762,-1.5798,-1.5819,-1.5853,-1.5901,-1.5941,-1.595,-1.5966,-1.5972,-1.5981,-1.594,-1.5935,-1.5931,-1.592,-1.5975,-1.5975,-1.6021,-1.6022,-1.6022]},{"header":{"parameterUnit":"m.s-1","parameterCategory":1,"la1":30.2991,"la2":30.254,"lo1":-89.0895,"lo2":-89.0444,"dy":0.0017,"dx":0.0017,"nx":28,"ny":28,"refTime":"2024-06-03T09:00:00:Z","depth":0,"parameterNumber":3,"parameterNumberName":"V-component_of_WINDS"},"data":[0,0,0,0,0,0,0,0,0,0,0,0,0,0,0,0,0,0,0,0,0,0,0,0,0,0,0,0,0,0,0,0,0,0,0,0,0,0,0,0,0,0,0,0,0,0,0,0,0,0,0,0,0,0,0,0,0,0,2.8345,2.8346,0,2.838,2.8381,2.8381,2.8415,2.8415,2.8416,2.8416,2.8449,2.8449,2.845,0,0,0,0,0,0,0,0,0,0,0,0,0,2.8305,2.8306,2.8345,2.8346,2.8346,2.838,2.8381,2.8381,2.8415,2.8415,2.8416,2.8416,2.8449,2.8449,2.845,0,0,0,0,0,0,0,0,0,0,0,0,0,2.8329,2.8306,2.8345,2.8367,2.837,2.838,2.8381,2.8381,2.8415,2.8415,2.8416,2.8417,2.8448,2.8449,2.845,2.844,0,0,2.8452,2.8452,0,0,0,0,0,0,0,0,2.8328,2.8331,2.8364,2.8366,2.8368,2.8394,2.8378,2.8401,2.8415,2.8397,2.8416,2.8417,2.843,2.8432,2.8437,2.8442,2.8443,2.8452,2.8452,2.8452,2.8453,0,0,0,0,0,0,0,2.8326,2.8329,2.8359,2.8364,2.8367,2.8374,2.8379,2.8383,2.8409,2.8399,2.8402,2.8405,2.8431,2.8436,2.8438,2.8444,2.8452,2.8452,2.8453,2.8453,2.8443,2.8442,0,0,0,0,0,0,2.8322,2.8328,2.8358,2.836,2.8349,2.8375,2.8379,2.8385,2.8409,2.8414,2.8405,2.8407,2.8435,2.8437,2.8439,2.843,2.8452,2.8453,2.8453,2.8443,2.8443,2.8442,0,0,0,0,0,0,2.8321,2.8324,2.8357,2.8345,2.8349,2.8375,2.8381,2.8385,2.8391,2.8414,2.8418,2.8405,2.8435,2.8438,2.844,2.8432,2.8453,2.8454,2.8444,2.8443,2.8442,2.8412,0,0,0,0,0,0,2.8319,2.8323,2.8321,2.8344,2.835,2.8358,2.838,2.8386,2.8392,2.8395,2.8415,2.8419,2.8436,2.8439,2.8441,2.8433,2.8454,2.8445,2.8444,2.8443,2.8414,2.841,2.8407,0,0,0,0,0,2.8318,2.831,2.832,2.8324,2.8347,2.8357,2.836,2.838,2.8391,2.8388,2.8403,2.8419,2.8432,2.8439,2.8441,2.8434,2.8446,2.8444,2.8443,2.8415,2.8411,2.8407,0,0,0,0,0,0,2.8283,2.8313,2.8325,2.8325,2.8339,2.8363,2.836,2.8375,2.8384,2.8387,2.841,2.8415,2.8414,2.8424,2.843,2.8426,2.8441,2.844,2.8419,2.8415,2.8412,2.841,2.8455,0,0,0,0,0,2.8276,2.8283,2.8308,2.8305,2.8312,2.8334,2.8339,2.8354,2.8368,2.8374,2.8389,2.8401,2.8408,2.8412,2.842,2.8415,2.842,2.8411,2.8408,2.8405,2.8403,2.8402,2.8398,2.8437,2.8437,2.8437,0,0,2.826,2.8278,2.828,2.8299,2.8311,2.8316,2.8339,2.8343,2.8347,2.8374,2.8377,2.8388,2.8404,2.8402,2.8402,2.8411,2.8394,2.8403,2.84,2.8401,2.84,2.8396,2.8393,2.8436,2.8436,2.8436,0,0,2.8235,2.8249,2.8249,2.826,2.8279,2.8294,2.8294,2.8316,2.8325,2.8329,2.8349,2.8353,2.8365,2.8375,2.8382,2.836,2.8375,2.8362,2.8344,2.8342,2.8339,2.8336,2.8329,2.8326,2.8361,2.8361,2.8361,0,2.8213,2.8223,2.8246,2.825,2.8257,2.8283,2.8282,2.8292,2.8311,2.8315,2.8325,2.834,2.8352,2.8354,2.8349,2.8353,2.8353,2.836,2.8338,2.8335,2.8333,2.8326,2.8323,2.8359,2.8359,2.8359,2.836,0,2.8196,2.8202,2.8199,2.8219,2.8226,2.8227,2.825,2.8254,2.8268,2.8282,2.8285,2.83,2.8312,2.8313,2.8326,2.8316,2.8321,2.8333,2.8349,2.8327,2.8321,2.8319,2.8357,2.8357,2.8358,2.8358,0,0,2.815,2.8183,2.8181,2.8191,2.8213,2.8218,2.822,2.8232,2.8235,2.8247,2.825,2.8259,2.8271,2.8279,2.8293,2.8291,2.8274,2.8304,2.8305,2.8298,2.8264,2.8255,2.8251,2.8283,2.8283,2.8283,2.8263,0,2.8129,2.8136,2.8157,2.8157,2.8163,2.8187,2.8189,2.8202,2.8215,2.8222,2.8236,2.8242,2.8257,2.8262,2.8261,2.8276,2.8267,2.8277,2.8285,2.8285,2.8281,2.8248,2.8238,2.8219,2.826,2.826,2.826,0,2.8105,2.8117,2.8119,2.8141,2.8144,2.8146,2.8159,2.8165,2.818,2.8189,2.8198,2.8214,2.8217,2.8232,2.8236,2.8242,2.8246,2.8254,2.8254,2.8255,2.8271,2.8249,2.8213,2.821,2.8256,2.8256,2.8257,0,2.8072,2.8089,2.8092,2.8099,2.8125,2.8125,2.8136,2.8152,2.8158,2.8169,2.8173,2.8183,2.8189,2.8197,2.8215,2.8224,2.8217,2.8233,2.8224,2.8224,2.8222,2.8222,2.8187,2.8224,2.8224,2.8224,2.8224,0,2.8047,2.8047,2.8078,2.808,2.808,2.8103,2.8102,2.8115,2.8129,2.8133,2.8154,2.8157,2.8181,2.8186,2.82,2.8202,2.8204,2.8211,2.8215,2.821,2.8209,2.8213,2.8215,2.8223,2.8224,2.8224,2.8224,0,2.801,2.8031,2.8036,2.8061,2.8067,2.8066,2.8086,2.8088,2.8103,2.8108,2.811,2.8132,2.814,2.8159,2.8171,2.818,2.8178,2.8185,2.8173,2.8176,2.8166,2.8167,2.8133,2.8129,2.8168,2.8168,2.8168,0,2.7993,2.7994,2.8019,2.8023,2.8034,2.8041,2.8048,2.807,2.8076,2.8093,2.8093,2.8103,2.8112,2.8123,2.8139,2.8149,2.8156,2.8143,2.8157,2.8152,2.8156,2.8156,2.8156,2.814,2.814,2.8139,2.8139,0,2.796,2.7971,2.798,2.7994,2.8001,2.8012,2.8024,2.8027,2.8052,2.8057,2.8066,2.8073,2.8086,2.8095,2.8107,2.8117,2.8132,2.8134,2.8133,2.8128,2.8121,2.8125,2.8165,2.8135,2.8135,2.8136,2.8136,2.8136,2.7933,2.7935,2.7953,2.7963,2.7975,2.7986,2.7989,2.8005,2.8013,2.8026,2.8038,2.8046,2.806,2.8078,2.8087,2.8092,2.81,2.8098,2.8097,2.8097,2.8094,2.812,2.8094,2.8094,2.8095,2.8095,2.8095,0,2.7902,2.7915,2.7924,2.7941,2.7949,2.7963,2.7977,2.7982,2.7989,2.8002,2.8011,2.802,2.8029,2.8046,2.8056,2.8057,2.8065,2.8059,2.806,2.8062,2.8087,2.8087,2.8054,2.8054,2.8054,2.8054,2.8054,2.8054,2.7887,2.7891,2.7904,2.7914,2.7926,2.7935,2.7941,2.7951,2.7962,2.7972,2.798,2.7992,2.8006,2.8018,2.8026,2.8031,2.8034,2.8026,2.8033,2.8056,2.806,2.8064,2.8064,2.8027,2.8026,2.8008,2.8008,2.8008]}]]